{"data":{"norad_id":59899,"intl_designator":"2024-100Q","name":"STARLINK-31942","alt_names":[],"object_type":"PAYLOAD","status":"ACTIVE","operator":null,"country":"US","launch_date":"2024-05-28","launch_site_code":"AFETR","launch_vehicle":null,"mission":null,"orbit_class":"UNKNOWN","rcs_meters":null,"size_class":null,"mass_kg":null,"dimensions":null,"purposes":["comms"],"wikipedia_slug":null,"has_3d_model":false,"image_url":null,"decayed_at":null,"tle_current":{"epoch":"2026-05-25T03:48:51.576192Z","epoch_age_seconds":55172,"freshness":"FRESH","line1":"1 59899U 24100Q   26145.15893028  .00000580  00000+0  30610-4 0  9997","line2":"2 59899  43.0010  53.3831 0001078 267.3083  92.7645 15.27580865112844","mean_motion":15.27580865,"eccentricity":0.0001078,"inclination_deg":43.001,"raan_deg":53.3831,"arg_perigee_deg":267.3083,"mean_anomaly_deg":92.7645,"bstar":3.061e-5,"rev_number":11284,"period_min":94.266695334653,"perigee_km":482.30687033775,"apogee_km":483.78614150163,"semimajor_km":6861.1835059197,"source":"CELESTRAK","updated_at":"2026-05-25T13:38:19.119132Z"}}}